TimeCST,TemperatureF,Dew PointF,Humidity,Sea Level PressureIn,VisibilityMPH,Wind Direction,Wind SpeedMPH,Gust SpeedMPH,PrecipitationIn,Events,Conditions,WindDirDegrees,DateUTC
12:53 AM,41.0,37.0,86,29.96,8.0,NE,10.4,-,0.01,Rain,Light Rain,40,2012-12-07 06:53:00
1:53 AM,41.0,36.0,82,29.95,10.0,NE,9.2,-,0.01,Rain,Light Rain,50,2012-12-07 07:53:00
2:53 AM,41.0,35.1,79,29.95,10.0,NE,10.4,-,0.00,,Overcast,40,2012-12-07 08:53:00
3:53 AM,41.0,34.0,76,29.94,10.0,NE,10.4,-,N/A,,Overcast,50,2012-12-07 09:53:00
4:53 AM,39.9,34.0,79,29.94,10.0,NE,9.2,-,N/A,,Overcast,50,2012-12-07 10:53:00
5:53 AM,39.9,33.1,77,29.94,10.0,NNE,8.1,-,N/A,,Overcast,30,2012-12-07 11:53:00
6:53 AM,37.9,30.9,76,29.95,10.0,NNE,10.4,-,N/A,,Overcast,30,2012-12-07 12:53:00
7:53 AM,37.9,30.9,76,29.94,10.0,NNE,8.1,-,N/A,,Overcast,30,2012-12-07 13:53:00
8:53 AM,39.0,30.9,73,29.95,10.0,NE,5.8,-,N/A,,Overcast,40,2012-12-07 14:53:00
9:53 AM,39.0,32.0,76,29.96,10.0,North,9.2,-,N/A,,Overcast,10,2012-12-07 15:53:00
10:53 AM,39.0,32.0,76,29.95,10.0,NE,6.9,-,N/A,,Overcast,50,2012-12-07 16:53:00
11:53 AM,39.9,32.0,73,29.93,10.0,NE,6.9,-,N/A,,Overcast,50,2012-12-07 17:53:00
12:53 PM,41.0,33.1,73,29.90,10.0,East,6.9,-,N/A,,Overcast,80,2012-12-07 18:53:00
1:53 PM,41.0,33.1,73,29.88,10.0,ENE,4.6,-,N/A,,Overcast,70,2012-12-07 19:53:00
2:53 PM,41.0,34.0,76,29.91,9.0,NNE,3.5,-,N/A,,Overcast,30,2012-12-07 20:53:00
3:13 PM,39.2,33.8,81,29.89,10.0,Calm,Calm,-,N/A,,Overcast,0,2012-12-07 21:13:00
3:50 PM,41.0,33.8,76,29.89,10.0,North,4.6,-,N/A,,Overcast,10,2012-12-07 21:50:00
3:53 PM,39.9,33.1,77,29.92,10.0,North,6.9,-,N/A,,Overcast,350,2012-12-07 21:53:00
4:53 PM,39.9,32.0,73,29.92,10.0,North,6.9,-,N/A,,Overcast,360,2012-12-07 22:53:00
5:33 PM,39.2,33.8,81,29.90,10.0,North,6.9,-,N/A,,Overcast,10,2012-12-07 23:33:00
5:53 PM,39.0,34.0,82,29.92,10.0,NNE,9.2,-,N/A,,Overcast,30,2012-12-07 23:53:00
6:26 PM,39.2,33.8,81,29.89,10.0,ENE,5.8,-,N/A,,Overcast,70,2012-12-08 00:26:00
7:53 PM,39.0,33.1,79,29.92,10.0,NNE,3.5,-,N/A,,Overcast,30,2012-12-08 01:53:00
8:53 PM,37.9,34.0,86,29.94,10.0,NNW,3.5,-,0.00,,Overcast,340,2012-12-08 02:53:00
9:53 PM,37.9,33.1,83,29.95,10.0,North,6.9,-,N/A,,Overcast,350,2012-12-08 03:53:00
10:53 PM,37.9,33.1,83,29.96,9.0,North,6.9,-,N/A,,Overcast,350,2012-12-08 04:53:00
11:38 PM,35.6,30.2,81,29.94,8.0,North,4.6,-,N/A,,Scattered Clouds,360,2012-12-08 05:38:00
11:53 PM,34.0,30.9,89,29.97,8.0,North,4.6,-,N/A,,Clear,350,2012-12-08 05:53:00